Regional Weather Roundup
Issued by NWS

Home | Current Version | Previous Version | Graphics & Text | Print | Product List | Glossary On
Versions: 1 2 3 4 5 6 7 8 9 10 11 12 13 14 15 16 17 18 19 20 21 22 23 24 25 26 27 28 29 30 31 32 33 34 35 36 37 38 39 40 41 42 43 44 45 46 47 48 49 50
000
ASUS45 KBOI 191010
RWRID
WEATHER ROUNDUP FOR IDAHO
NATIONAL WEATHER SERVICE BOISE ID
300 AM MST FRI DEC 19 2014

NOTE: "FAIR" INDICATES FEW OR NO CLOUDS BELOW 12000 FEET
WITH NO SIGNIFICANT WEATHER AND/OR OBSTRUCTIONS TO VISIBILITY

IDZ012-014-191100-
SOUTHWEST IDAHO


CITY           SKY/WX    TMP DP  RH WIND       PRES   REMARKS
BOISE          CLOUDY    42  34  73 E9        30.06S
CALDWELL       CLOUDY    43  28  56 E12       30.07S
MOUNTAIN HOME  CLOUDY    38  31  77 E15       30.08R WCI  29
$$

IDZ016-017-191100-
SOUTHCENTRAL IDAHO


CITY           SKY/WX    TMP DP  RH WIND       PRES   REMARKS
BURLEY         CLOUDY    39  27  62 S13       30.10S WCI  31
JEROME         MOCLDY    35  26  69 E7        30.11R WCI  29
TWIN FALLS     MOCLDY    38  26  62 S12       30.09S WCI  30
$$

IDZ019>023-191100-
SOUTHEAST IDAHO


CITY           SKY/WX    TMP DP  RH WIND       PRES   REMARKS
IDAHO FALLS    CLOUDY    32  29  88 S5        30.13S WCI  27
POCATELLO      CLOUDY    37  28  70 S10       30.13S WCI  30
REXBURG        CLOUDY    32  29  88 S3        30.12S
$$

IDZ006-010-011-018-031-032-191100-
CENTRAL IDAHO MOUNTAINS


CITY           SKY/WX    TMP DP  RH WIND       PRES   REMARKS
MCCALL         LGT SNOW  32  31  96 E3        30.02S FOG
HAILEY         MOCLDY    32  30  93 N3        30.12S
STANLEY          N/A     32  23  69 SE8       30.04F WCI  25
SALMON         CLOUDY    27  23  86 CALM      30.07S
CHALLIS        CLOUDY    26  23  88 CALM      30.07S
$$

IDZ002-004-006-007-026-191100-
NORTHERN IDAHO


CITY           SKY/WX    TMP DP  RH WIND       PRES   REMARKS
LEWISTON       LGT RAIN  43  37  79 E12       29.94S
LOWELL           N/A     36  34  92 CALM      30.05S
COEUR D`ALENE  CLOUDY    36  34  93 NE5       29.91S WCI  32
MULLAN PASS    CLOUDY    30  28  92 S8        29.89S WCI  22
$$



USA.gov is the U.S. government's official web portal to all federal, state and local government web resources and services.